station_id,Datum,"Lufttemperatur 2m","Lufttemperatur 1m","Niederschlag 1m","Luftfeuchte 2m","Luftfeuchte 1m",Windgeschwindigkeit,Windrichtung,Erdoberflächentemperatur,"Bodentemperatur 20 cm","Bodentemperatur 40 cm","Bodentemperatur 60 cm",Taupunkttemperatur,Globalstrahlung
1,"2024-04-01 00:00:00",6.9,4.5,0.0,98.2,0,0.4,225.0,6.5,9.4,8.1,9.3,6.7,6.0
1,"2024-04-01 00:15:00",6.7,3.7,0.0,98.8,0,0.5,228.0,6.3,9.4,8.1,9.3,6.6,4.0
1,"2024-04-01 00:30:00",6.6,1.9,0.0,99.1,0,0.3,225.0,6.1,9.3,8.0,9.2,6.5,0.0
1,"2024-04-01 00:45:00",6.8,2.6,0.0,99.5,0,0.0,0.0,5.8,9.3,8.1,9.2,6.8,2.0
1,"2024-04-01 01:00:00",7.0,3.5,0.0,99.7,0,0.1,72.0,5.6,9.2,8.1,9.2,7.1,2.0
1,"2024-04-01 01:15:00",7.1,0.7,0.0,99.8,0,0.0,0.0,5.5,9.2,8.1,9.2,7.0,2.0
1,"2024-04-01 01:30:00",7.3,0.3,0.0,99.9,0,0.0,0.0,5.5,9.2,8.1,9.1,7.5,2.0
1,"2024-04-01 01:45:00",7.2,-0.8,0.0,99.9,0,0.1,226.0,5.7,9.1,8.1,9.1,7.2,10.0
1,"2024-04-01 02:00:00",7.0,-0.8,0.0,99.8,0,0.0,0.0,5.6,9.1,8.1,9.1,7.1,6.0
1,"2024-04-01 02:15:00",7.5,0.3,0.0,0,0,0.4,68.0,5.8,9.0,8.2,9.1,0,4.0
1,"2024-04-01 02:30:00",8.8,0.7,0.0,0,0,0.6,10.0,6.8,9.0,8.2,9.0,0,12.0
1,"2024-04-01 02:45:00",8.9,3.7,0.0,99.7,0,0.3,10.0,7.0,8.9,8.2,8.9,8.9,9.0
1,"2024-04-01 03:00:00",8.8,4.5,0.0,99.6,0,0.1,31.0,6.8,8.9,8.2,8.9,8.8,3.0
1,"2024-04-01 03:15:00",8.8,4.9,0.0,99.7,0,0.2,70.0,6.6,8.9,8.2,8.9,8.8,1.0
1,"2024-04-01 03:30:00",8.9,5.0,0.0,99.7,0,0.1,82.0,6.7,8.9,8.2,8.9,9.0,3.0
1,"2024-04-01 03:45:00",8.9,5.6,0.0,99.7,0,0.1,47.0,6.9,8.8,8.2,8.9,9.0,2.0
1,"2024-04-01 04:00:00",9.1,5.6,0.0,99.7,0,0.7,19.0,7.3,8.8,8.2,8.9,9.2,2.0
1,"2024-04-01 04:15:00",9.4,5.4,0.0,99.2,0,0.9,10.0,7.9,8.8,8.2,8.8,9.3,2.0
1,"2024-04-01 04:30:00",9.5,4.9,0.0,98.6,0,0.9,16.0,8.0,8.7,8.3,8.8,9.4,2.0
1,"2024-04-01 04:45:00",9.4,4.0,0.0,98.3,0,0.4,345.0,7.8,8.7,8.2,8.8,9.2,3.0
1,"2024-04-01 05:00:00",9.0,4.4,0.0,98.3,0,0.0,0.0,7.4,8.7,8.3,8.7,8.8,1.0
1,"2024-04-01 05:15:00",9.1,6.1,0.0,98.4,0,0.9,347.0,7.6,8.6,8.2,8.8,8.9,2.0
1,"2024-04-01 05:30:00",9.1,6.3,0.0,98.3,0,0.8,33.0,8.0,8.6,8.3,8.7,8.9,1.0
1,"2024-04-01 05:45:00",9.1,6.2,0.0,98.4,0,0.6,227.0,8.0,8.6,8.2,8.7,8.9,3.0
1,"2024-04-01 06:00:00",8.8,6.0,0.0,98.6,0,0.2,235.0,7.7,8.6,8.2,8.6,8.7,3.0
1,"2024-04-01 06:15:00",8.6,5.7,0.0,98.7,0,0.1,320.0,7.5,8.6,8.2,8.6,8.5,7.0
1,"2024-04-01 06:30:00",8.5,5.5,0.0,99.0,0,0.3,213.0,7.5,8.6,8.2,8.6,8.4,8.0
1,"2024-04-01 06:45:00",8.6,5.8,0.0,99.3,0,0.3,49.0,8.0,8.6,8.3,8.6,8.5,9.0
1,"2024-04-01 07:00:00",8.8,6.0,0.0,99.5,0,0.7,46.0,8.4,8.6,8.2,8.6,8.8,18.0
1,"2024-04-01 07:15:00",8.9,5.8,0.0,99.6,0,1.0,26.0,8.8,8.5,8.2,8.6,8.9,17.0
1,"2024-04-01 07:30:00",8.9,6.0,0.0,99.6,0,0.7,112.0,8.9,8.5,8.2,8.5,8.9,19.0
1,"2024-04-01 07:45:00",9.2,5.4,0.0,99.6,0,0.6,243.0,9.4,8.5,8.3,8.5,9.2,42.0
1,"2024-04-01 08:00:00",9.4,7.2,0.0,99.6,0,0.6,241.0,9.9,8.5,8.2,8.5,9.4,41.0
1,"2024-04-01 08:15:00",9.9,6.3,0.0,99.6,0,0.4,285.0,10.6,8.6,8.2,8.6,9.9,55.0
1,"2024-04-01 08:30:00",10.2,6.9,0.0,99.4,0,0.7,291.0,11.0,8.5,8.2,8.6,10.2,54.0
1,"2024-04-01 08:45:00",10.5,6.3,0.0,98.9,0,0.4,257.0,11.2,8.5,8.3,8.5,10.4,47.0
1,"2024-04-01 09:00:00",10.7,7.1,0.0,98.4,0,0.7,263.0,11.4,8.5,8.2,8.5,10.5,63.0
1,"2024-04-01 09:15:00",11.1,7.3,0.0,97.4,99.6,0.6,288.0,12.1,8.6,8.2,8.5,10.8,69.0
1,"2024-04-01 09:30:00",11.5,7.3,0.0,96.2,98.1,1.1,68.0,12.9,8.6,8.2,8.5,11.0,93.0
1,"2024-04-01 09:45:00",11.6,8.7,0.0,94.2,95.4,1.3,56.0,12.8,8.6,8.2,8.5,10.7,66.0
1,"2024-04-01 10:00:00",11.6,8.7,0.0,93.9,95.1,1.1,54.0,12.3,8.6,8.2,8.5,10.7,65.0
1,"2024-04-01 10:15:00",11.7,8.8,0.0,94.0,95.1,0.8,37.0,13.1,8.6,8.3,8.5,10.9,82.0
1,"2024-04-01 10:30:00",12.0,8.3,0.0,93.4,94.7,0.9,47.0,13.9,8.7,8.2,8.6,11.0,108.0
1,"2024-04-01 10:45:00",12.5,8.9,0.0,91.5,92.8,1.1,47.0,14.9,8.7,8.2,8.5,11.2,92.0
1,"2024-04-01 11:00:00",12.7,9.7,0.0,90.4,91.5,0.7,2.0,14.2,8.8,8.2,8.6,11.2,79.0
1,"2024-04-01 11:15:00",12.8,9.4,0.0,88.9,90.8,0.4,220.0,14.6,8.8,8.2,8.6,11.1,83.0
1,"2024-04-01 11:30:00",12.8,9.5,0.0,87.2,89.2,0.6,232.0,14.1,8.8,8.2,8.6,10.8,49.0
1,"2024-04-01 11:45:00",12.7,9.6,0.1,87.9,90.6,0.5,292.0,12.8,8.9,8.2,8.6,10.8,38.0
1,"2024-04-01 12:00:00",12.7,9.8,0.2,90.0,93.0,0.4,59.0,13.2,8.9,8.2,8.6,11.2,90.0
1,"2024-04-01 12:15:00",13.8,11.9,0.0,88.1,88.7,0.5,235.0,17.3,8.9,8.2,8.6,12.0,204.0
1,"2024-04-01 12:30:00",15.0,13.1,0.0,80.3,79.6,0.7,223.0,18.2,9.0,8.2,8.7,11.7,275.0
1,"2024-04-01 12:45:00",14.7,13.1,0.0,77.5,78.6,1.9,222.0,16.7,9.1,8.2,8.7,10.8,134.0
1,"2024-04-01 13:00:00",13.7,12.9,0.0,82.9,84.6,4.8,228.0,14.5,9.1,8.2,8.7,10.9,99.0
1,"2024-04-01 13:15:00",12.7,11.7,0.0,86.8,89.3,5.6,231.0,13.2,9.2,8.2,8.7,10.7,109.0
1,"2024-04-01 13:30:00",12.3,11.3,0.0,89.2,91.9,6.7,230.0,12.9,9.2,8.2,8.8,10.7,60.0
1,"2024-04-01 13:45:00",11.9,9.7,0.0,94.1,97.2,6.5,224.0,11.9,9.3,8.2,8.8,11.0,26.0
1,"2024-04-01 14:00:00",11.6,7.9,0.0,95.3,98.8,5.8,229.0,11.3,9.3,8.2,8.9,11.0,28.0
1,"2024-04-01 14:15:00",11.7,8.7,0.0,94.6,98.3,5.4,231.0,11.1,9.3,8.2,8.8,10.9,27.0
1,"2024-04-01 14:30:00",11.6,10.1,0.0,92.0,95.1,5.9,227.0,10.9,9.5,8.2,8.9,10.4,29.0
1,"2024-04-01 14:45:00",11.9,10.3,0.0,91.7,94.6,5.7,228.0,11.4,9.4,8.2,8.9,10.6,42.0
1,"2024-04-01 15:00:00",12.4,10.9,0.1,85.0,87.6,7.7,227.0,12.4,9.5,8.2,9.0,10.0,74.0
1,"2024-04-01 15:15:00",12.3,10.7,0.0,77.3,79.8,8.7,229.0,12.5,9.5,8.3,9.0,8.5,130.0
1,"2024-04-01 15:30:00",12.4,10.8,0.0,75.9,78.3,7.7,228.0,12.9,9.5,8.2,9.0,8.3,160.0
1,"2024-04-01 15:45:00",11.9,10.7,0.0,76.3,78.6,8.0,229.0,12.1,9.5,8.2,9.1,7.9,61.0
1,"2024-04-01 16:00:00",11.7,10.6,0.0,76.4,78.9,8.1,229.0,11.7,9.5,8.3,9.1,7.8,81.0
1,"2024-04-01 16:15:00",11.5,9.7,0.0,77.1,80.7,7.8,224.0,11.4,9.5,8.2,9.1,7.7,43.0
1,"2024-04-01 16:30:00",11.3,8.5,0.0,77.5,82.3,7.0,223.0,11.0,9.5,8.2,9.2,7.5,32.0
1,"2024-04-01 16:45:00",11.1,8.7,0.0,76.9,81.5,6.3,220.0,10.9,9.6,8.3,9.1,7.3,43.0
1,"2024-04-01 17:00:00",11.1,8.5,0.0,76.7,81.0,6.5,223.0,11.0,9.6,8.2,9.1,7.3,46.0
1,"2024-04-01 17:15:00",10.8,6.9,0.0,78.2,84.5,5.1,230.0,10.4,9.5,8.2,9.1,7.3,24.0
1,"2024-04-01 17:30:00",10.6,6.9,0.0,79.4,85.6,5.5,227.0,10.1,9.5,8.3,9.2,7.3,24.0
1,"2024-04-01 17:45:00",10.6,8.8,0.0,79.6,83.8,5.9,229.0,10.2,9.5,8.2,9.2,7.3,22.0
1,"2024-04-01 18:00:00",10.4,9.6,0.0,81.5,84.4,5.7,228.0,10.0,9.5,8.2,9.1,7.4,16.0
1,"2024-04-01 18:15:00",9.7,9.3,0.0,89.5,92.5,5.4,224.0,9.2,9.5,8.3,9.2,8.1,7.0
1,"2024-04-01 18:30:00",9.3,8.9,0.0,93.8,96.8,5.0,228.0,8.8,9.5,8.3,9.2,8.4,6.0
1,"2024-04-01 18:45:00",9.2,8.7,0.0,94.8,97.8,4.5,230.0,8.6,9.5,8.3,9.1,8.5,3.0
1,"2024-04-01 19:00:00",9.1,8.6,0.0,93.9,97.1,4.9,231.0,8.4,9.5,8.3,9.2,8.2,3.0
1,"2024-04-01 19:15:00",9.2,8.5,0.0,89.7,92.2,5.4,230.0,8.2,9.5,8.3,9.2,7.7,3.0
1,"2024-04-01 19:30:00",9.1,8.6,0.0,88.3,90.6,4.8,227.0,8.2,9.5,8.3,9.2,7.4,2.0
1,"2024-04-01 19:45:00",9.2,8.6,0.0,85.6,87.8,5.2,230.0,8.2,9.5,8.3,9.2,7.0,9.0
1,"2024-04-01 20:00:00",9.0,8.5,0.0,85.4,87.5,4.9,230.0,8.3,9.4,8.3,9.2,6.8,5.0
1,"2024-04-01 20:15:00",9.1,8.6,0.0,80.7,82.3,6.1,233.0,8.3,9.3,8.3,9.1,6.0,2.0
1,"2024-04-01 20:30:00",8.9,8.5,0.0,76.5,77.7,6.9,232.0,8.1,9.3,8.3,9.1,5.1,4.0
1,"2024-04-01 20:45:00",8.8,8.4,0.0,74.8,75.9,5.6,232.0,8.0,9.3,8.3,9.1,4.6,2.0
1,"2024-04-01 21:00:00",8.6,8.2,0.0,74.9,76.1,4.7,231.0,7.8,9.3,8.3,9.1,4.5,1.0
1,"2024-04-01 21:15:00",8.4,7.9,0.0,76.6,78.7,4.0,231.0,7.5,9.3,8.3,9.1,4.6,3.0
1,"2024-04-01 21:30:00",8.3,7.8,0.0,77.7,79.9,3.6,231.0,7.3,9.2,8.3,9.0,4.7,4.0
1,"2024-04-01 21:45:00",8.0,7.6,0.0,80.1,82.9,3.3,226.0,7.3,9.2,8.4,9.1,4.9,6.0
1,"2024-04-01 22:00:00",7.9,7.5,0.0,81.8,84.8,3.6,230.0,7.3,9.2,8.3,9.0,5.0,1.0
1,"2024-04-01 22:15:00",8.1,7.6,0.0,81.9,85.0,3.8,226.0,7.4,9.1,8.4,9.1,5.3,2.0
1,"2024-04-01 22:30:00",8.0,7.5,0.0,81.9,85.2,3.7,225.0,7.2,9.1,8.4,9.0,5.1,2.0
1,"2024-04-01 22:45:00",7.9,7.5,0.0,81.8,85.1,4.5,224.0,7.2,9.1,8.4,9.0,5.1,3.0
1,"2024-04-01 23:00:00",7.9,7.4,0.0,81.6,85.0,4.8,224.0,7.1,9.0,8.4,8.9,5.0,2.0
1,"2024-04-01 23:15:00",7.8,7.2,0.0,82.1,85.3,4.5,223.0,7.1,9.0,8.3,8.9,5.0,3.0
1,"2024-04-01 23:30:00",7.6,7.1,0.0,83.2,86.5,4.5,222.0,6.9,9.0,8.4,8.9,5.0,3.0
1,"2024-04-01 23:45:00",7.5,6.9,0.0,84.9,88.4,3.8,227.0,6.8,8.9,8.4,8.9,5.2,7.0
1,"2024-04-02 00:00:00",7.5,7.0,0.0,85.7,89.2,3.8,229.0,6.8,9.0,8.4,8.9,5.3,11.0
1,"2024-04-02 00:15:00",7.4,6.9,0.0,86.5,90.0,3.3,227.0,6.6,8.9,8.4,8.9,5.4,5.0
1,"2024-04-02 00:30:00",7.0,6.6,0.0,88.8,92.5,3.5,221.0,6.2,8.9,8.4,8.8,5.3,2.0
1,"2024-04-02 00:45:00",7.0,6.4,0.0,90.2,94.1,4.1,222.0,6.3,8.9,8.4,8.8,5.5,2.0
1,"2024-04-02 01:00:00",7.2,6.6,0.0,90.4,94.2,3.9,222.0,6.5,8.9,8.4,8.8,5.8,11.0
1,"2024-04-02 01:15:00",7.4,6.9,0.0,90.4,94.1,3.9,222.0,6.7,8.9,8.4,8.8,6.0,11.0
1,"2024-04-02 01:30:00",7.5,7.1,0.0,90.4,94.0,4.0,223.0,6.9,8.8,8.4,8.8,6.1,11.0
1,"2024-04-02 01:45:00",7.7,7.2,0.0,90.2,93.7,4.3,223.0,7.0,8.8,8.4,8.7,6.3,11.0
1,"2024-04-02 02:00:00",7.8,7.3,0.0,90.2,93.8,4.7,223.0,7.0,8.7,8.4,8.7,6.3,8.0
1,"2024-04-02 02:15:00",7.9,7.4,0.0,89.9,93.5,5.6,219.0,7.1,8.7,8.4,8.6,6.4,10.0
1,"2024-04-02 02:30:00",7.8,7.2,0.0,89.6,93.2,5.4,219.0,6.9,8.7,8.4,8.7,6.3,9.0
1,"2024-04-02 02:45:00",7.4,6.8,0.0,91.2,94.9,3.7,223.0,6.5,8.6,8.4,8.6,6.1,14.0
1,"2024-04-02 03:00:00",6.9,6.3,0.0,93.6,97.3,3.1,223.0,6.1,8.6,8.4,8.6,6.0,6.0
1,"2024-04-02 03:15:00",6.8,6.2,0.0,94.7,98.5,3.6,226.0,5.9,8.6,8.4,8.6,6.1,14.0
1,"2024-04-02 03:30:00",7.2,6.5,0.0,94.4,98.5,4.3,223.0,6.1,8.6,8.3,8.6,6.4,10.0
1,"2024-04-02 03:45:00",7.0,6.4,0.0,94.3,98.5,3.7,228.0,6.0,8.6,8.4,8.6,6.2,13.0
1,"2024-04-02 04:00:00",7.0,6.4,0.0,94.3,98.5,3.8,226.0,5.9,8.6,8.3,8.5,6.2,13.0
1,"2024-04-02 04:15:00",6.9,6.2,0.0,94.5,98.5,3.7,221.0,5.9,8.6,8.4,8.5,6.2,10.0
1,"2024-04-02 04:30:00",6.8,6.2,0.0,94.6,98.6,3.5,224.0,5.9,8.5,8.4,8.5,6.1,11.0
1,"2024-04-02 04:45:00",6.7,6.2,0.0,95.3,99.1,3.4,221.0,6.0,8.5,8.4,8.5,6.1,9.0
1,"2024-04-02 05:00:00",7.1,6.6,0.0,95.3,99.1,3.8,223.0,6.4,8.5,8.4,8.5,6.4,15.0
1,"2024-04-02 05:15:00",7.5,6.9,0.0,94.3,98.1,3.2,229.0,6.7,8.4,8.3,8.5,6.7,4.0
1,"2024-04-02 05:30:00",7.7,7.1,0.0,92.9,96.3,3.8,227.0,6.9,8.4,8.4,8.4,6.7,2.0
1,"2024-04-02 05:45:00",7.6,7.0,0.0,91.9,95.3,3.8,224.0,6.6,8.4,8.3,8.4,6.4,11.0
1,"2024-04-02 06:00:00",7.5,6.9,0.0,92.0,95.3,4.1,227.0,6.5,8.3,8.4,8.4,6.4,15.0
1,"2024-04-02 06:15:00",7.7,7.1,0.0,91.6,94.5,4.3,223.0,6.7,8.4,8.3,8.3,6.5,16.0
1,"2024-04-02 06:30:00",7.8,7.3,0.0,91.2,94.1,4.8,226.0,6.9,8.3,8.3,8.3,6.6,16.0
1,"2024-04-02 06:45:00",8.5,7.9,0.0,88.7,91.1,4.8,231.0,7.8,8.3,8.3,8.3,6.8,7.0
1,"2024-04-02 07:00:00",8.4,7.9,0.0,88.1,90.6,4.3,230.0,7.8,8.3,8.4,8.3,6.6,6.0
1,"2024-04-02 07:15:00",8.3,7.9,0.0,88.1,90.4,4.6,231.0,7.9,8.3,8.3,8.3,6.6,14.0
1,"2024-04-02 07:30:00",8.5,8.1,0.0,87.2,89.2,5.5,229.0,8.0,8.2,8.3,8.3,6.6,19.0
1,"2024-04-02 07:45:00",9.1,8.7,0.0,84.3,86.1,6.4,227.0,8.8,8.2,8.3,8.3,6.7,18.0
1,"2024-04-02 08:00:00",9.4,9.1,0.0,82.1,83.2,6.8,229.0,9.4,8.3,8.4,8.3,6.5,21.0
1,"2024-04-02 08:15:00",9.5,9.2,0.0,81.3,82.4,6.6,226.0,9.3,8.3,8.3,8.3,6.5,134.0
1,"2024-04-02 08:30:00",9.7,9.6,0.0,80.4,81.3,6.3,228.0,10.1,8.2,8.3,8.3,6.6,125.0
1,"2024-04-02 08:45:00",9.7,9.5,0.0,79.9,80.8,6.4,228.0,10.2,8.3,8.3,8.3,6.5,32.0
1,"2024-04-02 09:00:00",9.7,9.5,0.0,79.5,80.6,6.5,229.0,10.1,8.3,8.3,8.3,6.4,70.0
1,"2024-04-02 09:15:00",10.2,10.2,0.0,78.0,78.4,7.2,223.0,11.2,8.3,8.3,8.2,6.6,183.0
1,"2024-04-02 09:30:00",10.4,10.5,0.0,75.9,76.0,7.8,231.0,11.9,8.3,8.3,8.2,6.4,159.0
1,"2024-04-02 09:45:00",10.4,10.5,0.0,75.0,75.1,7.1,228.0,12.0,8.3,8.3,8.2,6.3,128.0
1,"2024-04-02 10:00:00",10.3,10.2,0.0,75.6,75.9,7.1,225.0,11.5,8.3,8.3,8.3,6.2,142.0
1,"2024-04-02 10:15:00",10.8,10.9,0.0,74.3,72.6,7.3,227.0,12.5,8.3,8.3,8.2,6.5,244.0
1,"2024-04-02 10:30:00",10.9,10.9,0.0,73.1,73.0,7.3,229.0,12.5,8.4,8.3,8.3,6.4,221.0
1,"2024-04-02 10:45:00",11.0,11.0,0.0,72.9,72.9,7.6,226.0,12.6,8.3,8.3,8.3,6.4,240.0
1,"2024-04-02 11:00:00",11.1,11.2,0.0,72.5,72.5,7.9,224.0,12.8,8.4,8.3,8.2,6.4,267.0
1,"2024-04-02 11:15:00",11.5,11.6,0.0,69.5,69.2,8.7,231.0,13.7,8.4,8.3,8.3,6.1,340.0
1,"2024-04-02 11:30:00",11.7,11.9,0.0,69.7,69.5,8.3,226.0,14.2,8.5,8.3,8.3,6.4,340.0
1,"2024-04-02 11:45:00",12.0,12.3,0.0,67.5,66.6,8.2,231.0,14.9,8.5,8.3,8.3,6.2,322.0
1,"2024-04-02 12:00:00",12.0,12.3,0.0,66.9,66.2,7.6,232.0,14.6,8.5,8.3,8.4,6.1,200.0
1,"2024-04-02 12:15:00",11.9,11.9,0.0,67.1,67.0,8.4,230.0,13.3,8.6,8.3,8.4,6.0,228.0
1,"2024-04-02 12:30:00",12.1,12.2,0.0,66.4,66.1,8.0,228.0,13.5,8.6,8.3,8.4,6.1,221.0
1,"2024-04-02 12:45:00",11.1,11.1,0.0,70.4,72.1,6.7,225.0,11.7,8.7,8.3,8.4,6.0,125.0
1,"2024-04-02 13:00:00",10.8,10.6,0.0,75.4,78.2,5.4,229.0,11.0,8.7,8.2,8.4,6.7,219.0
1,"2024-04-02 13:15:00",11.9,11.6,0.0,66.3,67.4,5.6,231.0,12.4,8.8,8.2,8.5,5.9,103.0
1,"2024-04-02 13:30:00",12.1,11.7,0.0,62.2,63.2,5.5,238.0,12.0,8.8,8.2,8.5,5.1,115.0
1,"2024-04-02 13:45:00",12.6,12.3,0.0,59.2,59.9,6.7,227.0,13.0,8.8,8.3,8.5,4.9,173.0
1,"2024-04-02 14:00:00",12.8,12.7,0.0,59.1,59.5,6.9,227.0,14.0,8.9,8.2,8.6,5.0,253.0
1,"2024-04-02 14:15:00",12.9,13.0,0.0,59.6,59.9,6.3,229.0,14.7,8.9,8.3,8.5,5.3,175.0
1,"2024-04-02 14:30:00",11.9,11.7,0.0,64.3,66.1,5.9,229.0,12.3,9.0,8.2,8.6,5.4,84.0
1,"2024-04-02 14:45:00",11.2,11.0,0.0,71.0,73.8,4.6,225.0,10.9,8.9,8.2,8.6,6.2,149.0
1,"2024-04-02 15:00:00",11.6,11.3,0.0,68.9,71.0,5.8,230.0,11.2,9.0,8.3,8.6,6.2,73.0
1,"2024-04-02 15:15:00",10.7,10.4,0.3,72.3,75.8,4.8,228.0,10.0,9.0,8.3,8.6,6.0,110.0
1,"2024-04-02 15:30:00",11.5,11.2,0.0,70.3,72.9,5.0,228.0,11.2,9.1,8.3,8.7,6.4,211.0
1,"2024-04-02 15:45:00",12.1,11.8,0.0,66.6,68.5,5.6,228.0,11.9,9.1,8.3,8.7,6.1,107.0
1,"2024-04-02 16:00:00",11.8,11.4,0.0,68.0,70.3,5.2,226.0,11.3,9.1,8.3,8.7,6.1,111.0
1,"2024-04-02 16:15:00",12.0,11.6,0.0,65.6,67.3,4.5,227.0,11.2,9.1,8.2,8.7,5.8,74.0
1,"2024-04-02 16:30:00",11.9,11.4,0.0,63.8,65.7,5.1,229.0,10.7,9.1,8.3,8.8,5.3,56.0
1,"2024-04-02 16:45:00",12.0,11.7,0.0,66.0,67.0,6.8,220.0,12.0,9.2,8.2,8.8,5.9,156.0
1,"2024-04-02 17:00:00",11.6,11.6,0.0,69.2,70.2,5.3,224.0,12.2,9.2,8.3,8.8,6.2,136.0
1,"2024-04-02 17:15:00",11.3,11.1,0.0,69.4,70.5,3.9,228.0,11.2,9.2,8.3,8.8,6.0,61.0
1,"2024-04-02 17:30:00",11.0,10.5,0.0,69.4,71.3,3.9,225.0,10.2,9.2,8.3,8.9,5.7,26.0
1,"2024-04-02 17:45:00",10.8,10.1,0.0,71.5,74.2,3.9,224.0,9.6,9.2,8.2,8.8,6.0,17.0
1,"2024-04-02 18:00:00",11.1,10.4,0.0,69.6,71.6,5.4,223.0,9.9,9.2,8.3,8.9,5.8,15.0
1,"2024-04-02 18:15:00",10.7,9.9,0.0,71.5,74.5,5.4,222.0,9.4,9.2,8.3,8.9,5.8,5.0
1,"2024-04-02 18:30:00",10.4,8.4,0.0,72.7,77.6,5.4,225.0,8.8,9.2,8.3,8.9,5.8,4.0
1,"2024-04-02 18:45:00",9.6,8.4,0.0,75.5,80.2,5.2,225.0,8.3,9.2,8.3,8.9,5.6,11.0
1,"2024-04-02 19:00:00",9.2,8.2,0.0,76.7,80.9,5.4,225.0,8.0,9.2,8.3,8.9,5.4,4.0
1,"2024-04-02 19:15:00",8.7,5.0,0.0,79.8,86.8,4.0,229.0,7.4,9.2,8.3,8.9,5.4,2.0
1,"2024-04-02 19:30:00",8.8,4.3,0.0,80.3,88.2,3.8,233.0,7.5,9.1,8.3,8.9,5.7,2.0
1,"2024-04-02 19:45:00",9.2,4.2,0.0,79.9,88.1,4.4,225.0,7.9,9.2,8.3,8.9,5.9,3.0
1,"2024-04-02 20:00:00",8.8,3.9,0.0,82.1,90.2,5.1,227.0,7.4,9.1,8.3,8.9,5.9,3.0
1,"2024-04-02 20:15:00",8.6,2.9,0.0,82.6,91.8,5.4,228.0,7.1,9.1,8.3,8.8,5.8,3.0
1,"2024-04-02 20:30:00",8.4,1.8,0.0,82.2,92.4,5.6,224.0,7.0,9.0,8.3,8.8,5.6,2.0
1,"2024-04-02 20:45:00",8.3,2.8,0.0,82.8,91.4,4.9,231.0,6.9,9.0,8.3,8.8,5.6,9.0
1,"2024-04-02 21:00:00",8.1,5.4,0.0,84.9,90.5,4.1,230.0,6.9,9.0,8.3,8.8,5.7,10.0
1,"2024-04-02 21:15:00",7.9,6.5,0.0,88.8,92.9,3.7,231.0,6.8,8.9,8.3,8.9,6.2,7.0
1,"2024-04-02 21:30:00",7.8,6.3,0.0,89.4,93.7,4.1,231.0,6.6,8.9,8.3,8.8,6.2,7.0
1,"2024-04-02 21:45:00",7.7,6.2,0.1,90.0,94.3,4.8,228.0,6.6,8.9,8.3,8.8,6.3,7.0
1,"2024-04-02 22:00:00",7.5,6.0,0.0,90.9,95.4,4.7,231.0,6.3,8.9,8.3,8.8,6.2,7.0
1,"2024-04-02 22:15:00",7.5,5.8,0.0,91.1,95.9,4.3,231.0,6.1,8.8,8.3,8.8,6.2,8.0
1,"2024-04-02 22:30:00",7.7,5.7,0.0,90.7,95.5,3.8,229.0,6.1,8.8,8.3,8.8,6.3,8.0
1,"2024-04-02 22:45:00",7.8,5.7,0.0,89.6,94.3,3.8,228.0,6.2,8.8,8.3,8.7,6.2,11.0
1,"2024-04-02 23:00:00",7.8,5.8,0.0,89.6,94.3,3.8,229.0,6.3,8.8,8.3,8.7,6.3,9.0
1,"2024-04-02 23:15:00",7.9,5.9,0.0,89.3,93.9,3.1,230.0,6.5,8.7,8.3,8.7,6.3,3.0
1,"2024-04-02 23:30:00",7.8,5.8,0.0,89.3,93.9,2.9,226.0,6.4,8.6,8.4,8.6,6.2,3.0
1,"2024-04-02 23:45:00",8.3,6.2,0.0,86.7,91.0,3.9,231.0,6.8,8.7,8.4,8.6,6.3,3.0
1,"2024-04-03 00:00:00",8.4,6.3,0.0,86.2,90.6,3.6,230.0,7.1,8.6,8.3,8.6,6.3,2.0
1,"2024-04-03 00:15:00",8.5,6.5,0.0,86.3,90.6,3.6,234.0,7.4,8.6,8.4,8.6,6.4,2.0
1,"2024-04-03 00:30:00",8.4,6.4,0.0,87.1,91.2,2.8,225.0,7.5,8.6,8.3,8.6,6.5,1.0
1,"2024-04-03 00:45:00",8.3,6.3,0.0,88.4,92.3,2.0,231.0,7.4,8.6,8.4,8.6,6.5,2.0
1,"2024-04-03 01:00:00",7.9,5.9,0.0,89.7,93.9,2.4,224.0,7.0,8.5,8.4,8.6,6.4,1.0
1,"2024-04-03 01:15:00",7.1,5.0,0.0,92.7,96.9,1.8,220.0,6.1,8.5,8.4,8.6,6.1,1.0
1,"2024-04-03 01:30:00",7.0,4.8,0.0,94.2,98.6,1.5,222.0,6.2,8.5,8.4,8.5,6.2,2.0
1,"2024-04-03 01:45:00",7.9,5.5,0.0,92.3,97.4,2.4,230.0,6.7,8.5,8.3,8.5,6.8,1.0
1,"2024-04-03 02:00:00",7.7,5.4,0.0,91.1,96.0,1.7,226.0,6.6,8.5,8.3,8.5,6.4,1.0
1,"2024-04-03 02:15:00",7.1,4.8,0.0,92.6,97.2,1.5,219.0,5.9,8.5,8.3,8.5,6.0,2.0
1,"2024-04-03 02:30:00",6.5,4.2,0.0,94.0,98.5,1.0,224.0,5.7,8.4,8.3,8.5,5.6,2.0
1,"2024-04-03 02:45:00",6.0,4.1,0.0,95.6,99.3,1.4,221.0,5.1,8.4,8.4,8.5,5.4,5.0
1,"2024-04-03 03:00:00",5.6,3.3,0.0,95.9,0,1.2,229.0,4.7,8.4,8.3,8.4,5.0,5.0
1,"2024-04-03 03:15:00",5.1,2.7,0.0,96.7,0,1.2,228.0,4.2,8.4,8.3,8.5,4.7,11.0
1,"2024-04-03 03:30:00",5.3,2.7,0.0,97.1,0,1.4,222.0,4.1,8.4,8.3,8.4,5.0,11.0
1,"2024-04-03 03:45:00",5.5,2.9,0.0,97.2,0,1.9,215.0,4.3,8.4,8.3,8.4,5.2,11.0
1,"2024-04-03 04:00:00",5.2,2.4,0.0,97.2,0,1.0,225.0,4.2,8.3,8.3,8.4,4.8,9.0
1,"2024-04-03 04:15:00",5.1,1.8,0.0,97.2,0,0.9,223.0,4.1,8.3,8.3,8.4,4.8,9.0
1,"2024-04-03 04:30:00",5.4,2.9,0.0,97.6,0,1.5,219.0,4.1,8.3,8.3,8.3,5.1,10.0
1,"2024-04-03 04:45:00",5.8,3.7,0.0,97.5,0,2.5,215.0,4.5,8.3,8.3,8.3,5.5,9.0
1,"2024-04-03 05:00:00",5.9,3.9,0.0,97.3,0,2.5,209.0,4.7,8.2,8.3,8.3,5.6,9.0
1,"2024-04-03 05:15:00",5.4,3.4,0.0,97.0,0,1.2,220.0,4.4,8.2,8.3,8.3,5.0,8.0
1,"2024-04-03 05:30:00",4.4,2.4,0.0,97.0,0,0.5,232.0,3.8,8.1,8.3,8.3,4.1,10.0
1,"2024-04-03 05:45:00",4.7,2.5,0.0,97.9,0,1.0,222.0,3.8,8.1,8.3,8.2,4.5,10.0
1,"2024-04-03 06:00:00",5.7,3.7,0.0,98.6,78.3,1.6,216.0,4.8,8.1,8.3,8.2,5.6,12.0
1,"2024-04-03 06:15:00",6.1,4.4,0.0,98.5,0,2.0,216.0,5.5,8.1,8.3,8.2,6.0,11.0
1,"2024-04-03 06:30:00",6.3,4.7,0.0,98.3,0,1.4,215.0,5.9,8.0,8.3,8.2,6.2,8.0
1,"2024-04-03 06:45:00",6.6,5.3,0.0,98.3,0,1.4,217.0,6.4,8.0,8.3,8.2,6.5,10.0
1,"2024-04-03 07:00:00",6.8,5.5,0.0,98.1,0,1.2,226.0,6.8,7.9,8.3,8.1,6.6,14.0
1,"2024-04-03 07:15:00",7.3,5.3,0.0,97.8,0,0.8,222.0,7.4,8.0,8.3,8.1,7.1,24.0
1,"2024-04-03 07:30:00",7.8,5.2,0.0,97.2,0,0.8,222.0,8.1,7.9,8.3,8.1,7.5,20.0
1,"2024-04-03 07:45:00",8.3,5.3,0.0,95.8,99.3,1.0,228.0,8.6,7.9,8.3,8.1,7.7,43.0
1,"2024-04-03 08:00:00",8.8,5.8,0.0,93.9,98.0,1.5,229.0,9.2,8.0,8.3,8.0,8.0,82.0
1,"2024-04-03 08:15:00",9.2,6.1,0.0,90.9,94.7,2.5,230.0,9.6,7.9,8.3,8.0,7.9,78.0
1,"2024-04-03 08:30:00",9.3,6.2,0.0,90.4,94.2,2.6,226.0,9.8,7.9,8.3,8.0,7.8,75.0
1,"2024-04-03 08:45:00",9.3,6.4,0.0,90.4,93.8,3.6,232.0,9.6,8.0,8.2,8.0,7.9,58.0
1,"2024-04-03 09:00:00",9.4,6.7,0.0,90.4,93.6,2.9,227.0,9.7,8.0,8.3,8.0,8.0,61.0
1,"2024-04-03 09:15:00",9.9,6.8,0.0,90.1,93.4,3.2,232.0,10.2,8.0,8.3,8.0,8.4,53.0
1,"2024-04-03 09:30:00",10.1,7.0,0.0,88.8,92.1,2.7,232.0,10.4,8.0,8.3,8.0,8.4,56.0
1,"2024-04-03 09:45:00",10.3,9.4,0.0,88.0,89.2,3.6,227.0,10.5,8.1,8.3,8.0,8.5,64.0
1,"2024-04-03 10:00:00",10.4,9.4,0.0,87.8,89.2,3.8,223.0,10.5,8.2,8.3,8.1,8.5,66.0
1,"2024-04-03 10:15:00",10.6,9.6,0.0,87.5,89.2,4.2,225.0,10.8,8.1,8.2,8.0,8.7,81.0
1,"2024-04-03 10:30:00",10.9,8.7,0.0,86.2,89.1,3.9,223.0,11.3,8.2,8.2,8.1,8.7,94.0
1,"2024-04-03 10:45:00",11.1,8.3,0.0,83.2,87.0,3.7,228.0,11.8,8.2,8.2,8.1,8.5,104.0
1,"2024-04-03 11:00:00",11.3,8.1,0.0,82.2,86.2,3.3,229.0,12.1,8.2,8.2,8.1,8.4,92.0
1,"2024-04-03 11:15:00",11.6,9.0,0.0,80.1,83.8,3.1,226.0,12.6,8.3,8.2,8.1,8.4,99.0
1,"2024-04-03 11:30:00",11.8,7.9,0.0,77.5,82.9,3.7,226.0,13.0,8.3,8.2,8.1,8.1,127.0
1,"2024-04-03 11:45:00",11.8,2.9,0.0,78.4,89.3,4.5,227.0,13.0,8.3,8.2,8.2,8.3,101.0
1,"2024-04-03 12:00:00",11.8,0.9,0.0,78.8,91.7,3.9,225.0,12.8,8.4,8.2,8.1,8.3,83.0
1,"2024-04-03 12:15:00",11.2,2.3,0.2,83.5,93.8,3.1,222.0,11.1,8.4,8.2,8.1,8.6,33.0
1,"2024-04-03 12:30:00",11.2,1.0,0.2,88.0,97.6,2.6,225.0,11.2,8.5,8.2,8.2,9.3,49.0
1,"2024-04-03 12:45:00",11.7,1.8,0.0,87.0,96.7,2.6,221.0,12.3,8.5,8.2,8.2,9.7,27.0
1,"2024-04-03 13:00:00",12.1,5.1,0.0,84.5,92.3,2.3,217.0,12.9,8.6,8.2,8.2,9.6,49.0
1,"2024-04-03 13:15:00",12.4,9.4,0.0,75.3,80.8,3.9,221.0,13.0,8.6,8.2,8.2,8.2,124.0
1,"2024-04-03 13:30:00",12.3,7.0,0.0,71.4,80.4,4.1,217.0,12.4,8.6,8.2,8.3,7.3,118.0
1,"2024-04-03 13:45:00",12.1,4.9,0.0,72.4,83.7,3.7,221.0,12.2,8.6,8.2,8.3,7.3,91.0
1,"2024-04-03 14:00:00",11.9,5.1,0.0,72.7,83.7,3.5,220.0,11.9,8.7,8.2,8.3,7.2,77.0
1,"2024-04-03 14:15:00",11.9,6.4,0.0,71.2,80.5,3.4,218.0,12.0,8.7,8.2,8.3,6.9,98.0
1,"2024-04-03 14:30:00",12.0,7.0,0.0,71.2,79.7,3.4,220.0,12.3,8.8,8.2,8.4,7.0,98.0
1,"2024-04-03 14:45:00",12.0,8.6,0.0,72.3,78.7,3.1,217.0,12.3,8.9,8.2,8.4,7.3,86.0
1,"2024-04-03 15:00:00",12.0,9.7,0.0,72.0,76.7,2.9,217.0,12.2,8.9,8.2,8.5,7.1,82.0
1,"2024-04-03 15:15:00",12.0,9.9,0.0,71.5,75.6,2.7,217.0,12.1,8.9,8.2,8.5,7.1,77.0
1,"2024-04-03 15:30:00",12.1,10.0,0.0,71.9,76.2,2.1,212.0,12.2,8.9,8.2,8.5,7.2,64.0
1,"2024-04-03 15:45:00",12.0,9.8,0.0,72.5,77.0,2.1,213.0,12.1,8.9,8.2,8.5,7.3,59.0
1,"2024-04-03 16:00:00",12.0,9.7,0.0,71.4,75.8,2.6,217.0,11.9,9.0,8.2,8.6,7.1,56.0
1,"2024-04-03 16:15:00",11.7,9.5,0.0,71.1,75.7,2.5,215.0,11.3,9.0,8.2,8.5,6.7,43.0
1,"2024-04-03 16:30:00",11.7,9.5,0.0,70.8,75.1,2.3,214.0,11.1,9.0,8.2,8.6,6.6,33.0
1,"2024-04-03 16:45:00",11.6,9.3,0.0,70.7,75.3,2.7,213.0,10.9,9.1,8.2,8.6,6.6,25.0
1,"2024-04-03 17:00:00",11.6,9.0,0.0,70.7,75.5,3.3,218.0,10.8,9.1,8.2,8.6,6.6,25.0
1,"2024-04-03 17:15:00",11.4,8.0,0.0,71.8,77.5,3.3,222.0,10.5,9.1,8.2,8.7,6.5,19.0
1,"2024-04-03 17:30:00",11.2,6.3,0.0,73.2,81.0,3.1,220.0,10.3,9.0,8.2,8.7,6.6,18.0
1,"2024-04-03 17:45:00",10.9,5.8,0.0,74.4,82.8,2.8,220.0,10.0,9.1,8.2,8.7,6.6,16.0
1,"2024-04-03 18:00:00",10.7,7.9,0.0,75.8,81.5,2.6,221.0,9.7,9.1,8.2,8.7,6.7,12.0
1,"2024-04-03 18:15:00",10.6,8.1,0.0,77.1,82.3,3.3,219.0,9.6,9.2,8.2,8.7,6.8,9.0
1,"2024-04-03 18:30:00",10.4,8.4,0.0,79.0,83.7,3.0,222.0,9.5,9.1,8.2,8.7,7.0,7.0
1,"2024-04-03 18:45:00",10.3,7.9,0.0,81.0,86.0,3.4,220.0,9.3,9.1,8.2,8.7,7.2,6.0
1,"2024-04-03 19:00:00",10.1,7.6,0.0,82.4,87.3,3.5,219.0,9.1,9.2,8.3,8.7,7.3,5.0
1,"2024-04-03 19:15:00",9.9,5.6,0.0,83.6,90.1,2.9,219.0,9.1,9.1,8.2,8.8,7.3,3.0
1,"2024-04-03 19:30:00",9.8,4.0,0.0,84.5,92.4,2.1,216.0,8.9,9.0,8.3,8.7,7.3,3.0
1,"2024-04-03 19:45:00",9.7,2.3,0.0,85.1,94.2,2.0,214.0,8.9,9.1,8.3,8.7,7.4,2.0
1,"2024-04-03 20:00:00",9.8,5.7,0.0,85.5,91.9,1.9,214.0,9.0,9.1,8.3,8.7,7.6,2.0
1,"2024-04-03 20:15:00",9.7,6.4,0.0,86.1,91.7,1.7,214.0,9.0,9.0,8.3,8.7,7.6,2.0
1,"2024-04-03 20:30:00",9.7,6.3,0.0,86.4,91.8,2.1,214.0,8.9,9.0,8.3,8.7,7.6,2.0
1,"2024-04-03 20:45:00",9.9,7.1,0.0,85.1,90.2,2.5,217.0,9.1,9.0,8.3,8.7,7.6,2.0
1,"2024-04-03 21:00:00",10.0,7.6,0.0,84.5,89.2,2.5,215.0,9.2,8.9,8.3,8.7,7.6,2.0
1,"2024-04-03 21:15:00",10.0,7.8,0.0,84.5,89.0,2.4,219.0,9.2,9.0,8.3,8.7,7.5,3.0
1,"2024-04-03 21:30:00",9.9,7.8,0.0,84.5,88.9,2.4,219.0,9.2,8.9,8.3,8.7,7.5,2.0
1,"2024-04-03 21:45:00",9.9,7.8,0.0,84.8,89.1,2.5,219.0,9.1,8.9,8.3,8.7,7.5,1.0
1,"2024-04-03 22:00:00",9.9,7.8,0.0,85.4,89.6,1.9,213.0,9.0,9.0,8.3,8.8,7.6,3.0
1,"2024-04-03 22:15:00",9.8,7.7,0.0,85.9,90.4,1.0,211.0,8.9,8.9,8.3,8.7,7.6,2.0
1,"2024-04-03 22:30:00",9.5,7.3,0.0,86.9,91.6,1.0,213.0,8.6,8.9,8.3,8.7,7.5,2.0
1,"2024-04-03 22:45:00",8.6,4.0,0.0,90.2,96.2,2.0,209.0,7.6,8.9,8.3,8.7,7.2,3.0
1,"2024-04-03 23:00:00",8.4,6.1,0.0,92.2,97.1,2.3,209.0,7.5,8.9,8.3,8.7,7.3,3.0
1,"2024-04-03 23:15:00",8.6,6.6,0.0,92.7,97.5,3.0,217.0,7.8,8.9,8.3,8.6,7.5,2.0
1,"2024-04-03 23:30:00",8.4,6.6,0.0,93.7,98.0,2.8,220.0,7.8,8.9,8.3,8.7,7.5,3.0
1,"2024-04-03 23:45:00",8.5,6.7,0.0,94.6,98.3,2.8,217.0,7.9,8.8,8.3,8.7,7.7,1.0
1,"2024-04-04 00:00:00",8.5,6.7,0.0,94.6,98.4,2.2,213.0,7.9,8.8,8.3,8.6,7.8,1.0
1,"2024-04-04 00:15:00",8.5,6.7,0.0,94.9,98.8,1.2,210.0,7.8,8.8,8.3,8.7,7.8,1.0
1,"2024-04-04 00:30:00",8.2,6.3,0.0,95.2,99.1,0.6,211.0,7.5,8.8,8.3,8.6,7.5,1.0
1,"2024-04-04 00:45:00",7.4,5.1,0.0,95.8,99.7,0.2,235.0,6.7,8.8,8.4,8.7,6.8,6.0